Houma, LA

7:59 PM CDT on August 22, 2017 (GMT -0500)
Houma-terrebonne

Weather History for KHUM - November, 2013

Change the Weather History Date:

Tuesday, November 26, 2013

  Actual Average Record
Temperature  
Mean Temperature 50 °F -  
Max Temperature 58 °F 71 °F 87 °F (1951)
Min Temperature 42 °F 49 °F 29 °F (1950)
Degree Days  
Heating Degree Days 15    
Moisture  
Dew Point 45 °F    
Average Humidity 92    
Maximum Humidity 100    
Minimum Humidity 85    
Precipitation  
Precipitation 0.68 in - - ()
Sea Level Pressure  
Sea Level Pressure 29.91 in    
Wind  
Wind Speed 12 mph (NW)    
Max Wind Speed 21 mph    
Max Gust Speed 28 mph    
Visibility 7 miles    
Events Rain , Thunderstorm    
Averages and records for this station are not official NWS values.
T = Trace of Precipitation, MM = Missing Value Source: NWS Daily Summary

Daily Weather History Graph

Daily Weather History Graph

Search for Another Location

Airport or City:

Trip Planner

Search our weather history database for the weather conditions in past years. The results will help you decide how hot, cold, wet, or windy it might be!

Date:

Astronomy

Nov. 26, 2013 Rise Set
Actual Time 6:36 AM CST 5:03 PM CST
Civil Twilight 6:10 AM CST 5:29 PM CST
Nautical Twilight 5:41 AM CST 5:58 PM CST
Astronomical Twilight 5:12 AM CST 6:27 PM CST
Moon 12:08 AM CST (11/26) 12:44 PM CST (11/26)
Length of Visible Light 11h 18m
Length of Day
10h 27m
Last Quarter, 41% of the Moon is Illuminated
Nov 26
Last Quarter
Dec 2
New
Dec 9
First Quarter
Dec 17
Full
Dec 25
Last Quarter

Hourly Weather History & Observations

Time (CST) Temp. Windchill Dew Point Humidity Pressure Visibility Wind Dir Wind Speed Gust Speed Precip Events Conditions
12:15 AM 58.1 °F - 56.1 °F 93% 29.82 in 1.0 mi North 9.2 mph - N/A Thunderstorm Overcast
12:35 AM 58.1 °F - 56.3 °F 94% 29.80 in 1.8 mi North 10.4 mph - N/A   Overcast
12:55 AM 56.5 °F - 54.5 °F 93% 29.81 in 2.5 mi NNW 11.5 mph 18.4 mph 0.09 in Rain , Thunderstorm Heavy Thunderstorms and Rain
1:15 AM 51.8 °F - 49.8 °F 93% 29.83 in 1.8 mi WNW 16.1 mph 27.6 mph 0.30 in Rain , Thunderstorm Heavy Thunderstorms and Rain
1:35 AM 50.4 °F - 48.6 °F 94% 29.81 in 5.0 mi NNW 15.0 mph 27.6 mph 0.46 in Rain , Thunderstorm Light Thunderstorms and Rain
1:55 AM 49.6 °F - 47.8 °F 94% 29.82 in 10.0 mi NNW 18.4 mph 23.0 mph 0.46 in Rain Light Rain
2:15 AM 48.7 °F - 47.3 °F 95% 29.85 in 10.0 mi NW 13.8 mph 19.6 mph 0.01 in Rain Light Rain
2:35 AM 47.3 °F - 45.7 °F 94% 29.84 in 10.0 mi NNW 17.3 mph 24.2 mph 0.01 in Rain Light Rain
2:55 AM 46.6 °F - 45.0 °F 94% 29.83 in 7.0 mi North 18.4 mph 26.5 mph 0.01 in Rain Rain
3:15 AM 46.4 °F 40.1 °F 44.8 °F 94% 29.80 in 7.0 mi NNE 15.0 mph 21.9 mph 0.01 in Rain Light Rain
3:35 AM 47.1 °F - 45.5 °F 94% 29.80 in 5.0 mi NE 10.4 mph 16.1 mph 0.06 in Rain Light Rain
3:55 AM 47.7 °F - 46.0 °F 94% 29.79 in 7.0 mi NNE 15.0 mph 18.4 mph 0.10 in Rain Light Rain
4:15 AM 47.8 °F - 46.4 °F 95% 29.78 in 10.0 mi NNE 10.4 mph - N/A   Overcast
4:35 AM 48.2 °F - 46.6 °F 94% 29.78 in 10.0 mi North 11.5 mph - N/A   Overcast
4:55 AM 48.6 °F - 46.9 °F 94% 29.78 in 10.0 mi North 8.1 mph - N/A Rain Light Rain
5:48 AM 50.0 °F - 48.2 °F 94% 29.77 in 6.0 mi North 10.4 mph - N/A   Overcast
6:50 AM 50.0 °F - 48.2 °F 94% 29.85 in 4.0 mi WNW 11.5 mph - N/A   Overcast
7:50 AM 48.2 °F - 48.2 °F 100% 29.89 in 1.8 mi WNW 20.7 mph 26.5 mph N/A   Overcast
8:50 AM 44.6 °F 38.8 °F 42.8 °F 93% 29.92 in 3.0 mi WNW 11.5 mph 26.5 mph N/A   Overcast
9:48 AM 44.6 °F 38.8 °F 42.8 °F 93% 29.90 in 5.0 mi WNW 11.5 mph 20.7 mph N/A   Overcast
10:48 AM 46.4 °F 39.5 °F 44.6 °F 93% 29.90 in 7.0 mi North 17.3 mph - N/A   Overcast
11:47 AM 48.2 °F - 46.4 °F 93% 29.90 in 7.0 mi NW 16.1 mph - N/A   Overcast
12:47 PM 48.2 °F - 48.2 °F 100% 29.87 in 7.0 mi NNW 11.5 mph - N/A   Overcast
1:19 PM 48.2 °F - 46.4 °F 93% 29.85 in 7.0 mi NNW 15.0 mph - N/A   Unknown
1:50 PM 48.2 °F - 46.4 °F 93% 29.84 in 7.0 mi NNW 13.8 mph - N/A   Unknown
2:50 PM 48.2 °F - 46.4 °F 93% 29.87 in 7.0 mi NW 11.5 mph 18.4 mph N/A   Unknown
3:50 PM 48.2 °F - 44.6 °F 87% 29.91 in 7.0 mi WNW 11.5 mph 18.4 mph N/A   Overcast
6:15 PM 44.6 °F 38.8 °F 41.7 °F 90% 29.93 in 5.0 mi NNW 11.5 mph 18.4 mph N/A Rain Light Rain
6:35 PM 44.6 °F 40.7 °F 41.9 °F 90% 29.94 in 7.0 mi NW 6.9 mph 17.3 mph 0.01 in Rain Light Rain
6:50 PM 44.6 °F 40.7 °F 42.8 °F 93% 29.97 in 7.0 mi WNW 6.9 mph - N/A   Overcast
6:55 PM 44.6 °F 40.7 °F 41.9 °F 90% 29.97 in 5.0 mi West 6.9 mph - 0.01 in   Overcast
7:15 PM 44.6 °F 39.7 °F 41.5 °F 89% 29.99 in 5.0 mi West 9.2 mph - N/A   Overcast
7:35 PM 44.2 °F 41.0 °F 41.2 °F 89% 29.99 in 7.0 mi WNW 5.8 mph - N/A Rain Light Rain
7:55 PM 44.1 °F 38.1 °F 41.2 °F 90% 30.00 in 7.0 mi WNW 11.5 mph - N/A Rain Light Rain
8:15 PM 44.1 °F 39.0 °F 41.0 °F 89% 30.01 in 5.0 mi West 9.2 mph - 0.01 in Rain Light Rain
8:35 PM 43.7 °F 38.6 °F 40.5 °F 88% 30.02 in 7.0 mi WNW 9.2 mph 17.3 mph 0.01 in   Overcast
8:55 PM 43.7 °F 39.1 °F 40.1 °F 87% 30.03 in 7.0 mi WNW 8.1 mph - 0.01 in   Overcast
9:15 PM 43.7 °F 37.3 °F 39.7 °F 86% 30.04 in 7.0 mi WNW 12.7 mph 19.6 mph N/A   Overcast
9:35 PM 43.3 °F 37.2 °F 39.6 °F 87% 30.05 in 7.0 mi NW 11.5 mph 18.4 mph N/A   Overcast
9:55 PM 43.0 °F 37.2 °F 39.2 °F 86% 30.05 in 10.0 mi NW 10.4 mph - N/A   Drizzle
10:15 PM 43.0 °F 36.8 °F 39.6 °F 88% 30.06 in 10.0 mi NW 11.5 mph - N/A Rain Light Rain
10:35 PM 42.8 °F 36.2 °F 39.4 °F 88% 30.05 in 10.0 mi NNW 12.7 mph 17.3 mph N/A Rain Light Rain
10:55 PM 42.4 °F 35.7 °F 39.4 °F 89% 30.05 in 10.0 mi NW 12.7 mph 18.4 mph N/A Rain Light Rain
11:15 PM 42.4 °F 36.1 °F 39.2 °F 88% 30.05 in 7.0 mi NW 11.5 mph 19.6 mph N/A   Overcast
11:35 PM 42.6 °F 35.9 °F 39.2 °F 88% 30.05 in 7.0 mi NW 12.7 mph 19.6 mph N/A   Overcast
11:55 PM 42.3 °F 34.4 °F 38.1 °F 85% 30.07 in 7.0 mi NNW 16.1 mph 25.3 mph N/A   Overcast